Whiteman AFB, MO

5:18 PM CST on November 11, 2019 (GMT -0600)
Whiteman Air Force Base

Weather History for KSZL - May, 2019

Change the Weather History Date:

Friday, May 10, 2019

  Actual Average Record
Temperature  
Mean Temperature 51 °F -  
Max Temperature 61 °F 72 °F 88 °F (2011)
Min Temperature 43 °F 52 °F 39 °F (1997)
Degree Days  
Heating Degree Days 14    
Growing Degree Days 1 (Base 50)    
Moisture  
Dew Point 43 °F    
Average Humidity 71    
Maximum Humidity 99    
Minimum Humidity 48    
Precipitation  
Precipitation 0.00 in - - ()
Sea Level Pressure  
Sea Level Pressure 30.12 in    
Wind  
Wind Speed 7 mph (NNE)    
Max Wind Speed 12 mph    
Max Gust Speed -    
Visibility 10 miles    
Events      
Averages and records for this station are not official NWS values.
T = Trace of Precipitation, MM = Missing Value Source: NWS Daily Summary

Daily Weather History Graph

Daily Weather History Graph

Search for Another Location

Airport or City:

Astronomy

May. 10, 2019 Rise Set
Actual Time 6:06 AM CDT 8:14 PM CDT
Civil Twilight 5:37 AM CDT 8:44 PM CDT
Nautical Twilight 5:01 AM CDT 9:20 PM CDT
Astronomical Twilight 4:22 AM CDT 9:59 PM CDT
Moon 11:08 AM CDT (5/10) 1:07 AM CDT (5/10)
Length of Visible Light 15h 06m
Length of Day
14h 07m
Waxing Crescent, 35% of the Moon is Illuminated
May 10
Waxing Crescent
May 11
First Quarter
May 18
Full
May 26
Last Quarter
Jun 3
New

Hourly Weather History & Observations

Time (CDT) Temp. Windchill Dew Point Humidity Pressure Visibility Wind Dir Wind Speed Gust Speed Precip Events Conditions
12:56 AM 47.5 °F - 43.5 °F 86% 30.10 in 10.0 mi NW 6.9 mph - N/A   Overcast
1:56 AM 47.3 °F - 43.3 °F 86% 30.11 in 10.0 mi NW 5.8 mph - N/A   Overcast
2:56 AM 46.8 °F - 43.3 °F 88% 30.10 in 10.0 mi NNW 6.9 mph - N/A   Overcast
3:56 AM 46.2 °F 43.3 °F 43.7 °F 91% 30.08 in 10.0 mi North 5.8 mph - N/A   Overcast
4:56 AM 44.2 °F 42.7 °F 43.2 °F 96% 30.14 in 10.0 mi West 3.5 mph - N/A   Mostly Cloudy
5:56 AM 43.2 °F 40.5 °F 43.0 °F 99% 30.15 in 10.0 mi NW 4.6 mph - N/A   Scattered Clouds
6:56 AM 44.1 °F 39.5 °F 43.9 °F 99% 30.16 in 10.0 mi NNW 8.1 mph - N/A   Partly Cloudy
7:56 AM 47.5 °F - 44.4 °F 89% 30.17 in 10.0 mi North 9.2 mph - N/A   Scattered Clouds
8:56 AM 51.6 °F - 40.6 °F 66% 30.18 in 10.0 mi North 11.5 mph - N/A   Mostly Cloudy
9:56 AM 54.0 °F - 39.9 °F 59% 30.16 in 10.0 mi North 9.2 mph - N/A   Scattered Clouds
10:56 AM 55.0 °F - 40.5 °F 58% 30.16 in 10.0 mi North 11.5 mph - N/A   Mostly Cloudy
11:56 AM 55.8 °F - 40.3 °F 56% 30.17 in 10.0 mi North 10.4 mph - N/A   Mostly Cloudy
12:56 PM 57.2 °F - 41.7 °F 56% 30.15 in 10.0 mi NE 9.2 mph - N/A   Mostly Cloudy
1:56 PM 59.0 °F - 39.2 °F 48% 30.12 in 10.0 mi NE 4.6 mph - N/A   Scattered Clouds
2:56 PM 59.9 °F - 41.7 °F 51% 30.13 in 10.0 mi NE 9.2 mph - N/A   Mostly Cloudy
3:56 PM 59.5 °F - 41.9 °F 52% 30.10 in 10.0 mi East 9.2 mph - N/A   Mostly Cloudy
4:56 PM 59.7 °F - 42.6 °F 53% 30.09 in 10.0 mi ENE 5.8 mph - N/A   Scattered Clouds
5:56 PM 58.1 °F - 42.1 °F 55% 30.09 in 10.0 mi NE 4.6 mph - N/A   Scattered Clouds
6:56 PM - - - N/A% - - North - - N/A   Unknown
7:56 PM 59.0 °F - 41.0 °F 51% 30.15 in 10.0 mi ENE 2.3 mph - N/A   Scattered Clouds
8:56 PM 57.2 °F - 41.0 °F 55% 30.13 in 10.0 mi NE 3.5 mph - N/A   Mostly Cloudy
9:59 PM 52.2 °F - 45.1 °F 77% 30.08 in 10.0 mi Calm Calm - N/A   Mostly Cloudy
10:56 PM 50.5 °F - 47.1 °F 88% 30.09 in 10.0 mi Calm Calm - N/A   Overcast
11:56 PM 51.4 °F - 45.9 °F 81% 30.06 in 10.0 mi NE 3.5 mph - N/A   Mostly Cloudy